This demonstration page uses our WeatherBlox Daily Observations layout. Learn more.

Left ArrowRight Arrow

39.29038, -76.61219

Hourly Observations for October 1, 2022

Temp ( °F °C ) Dew Point ( °F °C ) Humidity (%) Winds ( mph kmh ) Pressure ( in mb ) Visibility ( mi km ) Precip ( " mm )
12:54 am 00:54 undefined 57 13.9 52 11.1 83 83 undefined N/A 29.99 1016 N/A 0.09 2.29
1:54 am 01:54 undefined 57 13.9 53 11.7 87 87 undefined N/A 29.99 1016 N/A 0.11 2.79
2:54 am 02:54 undefined 57 13.9 53 11.7 87 87 undefined N/A 29.96 1015 N/A 0.25 6.35
3:54 am 03:54 undefined 58 14.4 53 11.7 84 84 undefined N/A 29.92 1013 N/A 0.08 2.03
4:54 am 04:54 undefined 57 13.9 54 12.2 89 89 undefined N/A 29.92 1013 N/A 0.05 1.27
5:54 am 05:54 undefined 57 13.9 53 11.7 87 87 undefined N/A 29.91 1013 N/A 0.04 1.02
6:54 am 06:54 undefined 58 14.4 54 12.2 87 87 undefined N/A 29.93 1014 N/A 0.01 0.25
7:54 am 07:54 undefined 58 14.4 53 11.7 84 84 undefined N/A 29.93 1013 N/A 0.00 0.00
8:54 am 08:54 undefined 58 14.4 54 12.2 87 87 undefined N/A 29.93 1014 N/A 0.00 0.00
9:54 am 09:54 undefined 58 14.4 54 12.2 87 87 undefined N/A 29.93 1014 N/A 0.07 1.78
10:54 am 10:54 undefined 58 14.4 54 12.2 87 87 undefined N/A 29.93 1014 N/A 0.00 0.00
11:54 am 11:54 undefined 60 15.6 55 12.8 83 83 undefined N/A 29.92 1013 N/A 0.00 0.00
12:54 pm 12:54 undefined 60 15.6 55 12.8 83 83 undefined N/A 29.91 1013 N/A 0.00 0.00
1:54 pm 13:54 undefined 61 16.1 56 13.3 83 83 undefined N/A 29.89 1012 N/A 0.00 0.00
2:54 pm 14:54 undefined 62 16.7 56 13.3 80 80 undefined N/A 29.89 1012 N/A 0.00 0.00
3:54 pm 15:54 undefined 63 17.2 57 13.9 81 81 undefined N/A 29.87 1012 N/A 0.00 0.00
4:54 pm 16:54 undefined 63 17.2 57 13.9 81 81 undefined N/A 29.87 1012 N/A 0.00 0.00
5:54 pm 17:54 undefined 63 17.2 58 14.4 84 84 undefined N/A 29.87 1011 N/A 0.00 0.00
6:54 pm 18:54 undefined 62 16.7 58 14.4 86 86 undefined N/A 29.88 1012 N/A 0.00 0.00
7:54 pm 19:54 undefined 61 16.1 58 14.4 90 90 undefined N/A 29.88 1012 N/A 0.00 0.00
8:54 pm 20:54 undefined 61 16.1 58 14.4 90 90 undefined N/A 29.89 1012 N/A 0.00 0.00
9:54 pm 21:54 undefined 61 16.1 58 14.4 90 90 undefined N/A 29.89 1012 N/A 0.00 0.00
10:54 pm 22:54 undefined 61 16.1 58 14.4 90 90 undefined N/A 29.89 1012 N/A 0.00 0.00
11:54 pm 23:54 undefined 62 16.7 58 14.4 86 86 undefined N/A 29.89 1012 N/A 0.00 0.00

Powered by AerisWeather